Weather in Cilaos

Reunion     21°08′12″S   55°28′10″E
temp.,
°C
wind,
m/s
gust,
m/s
humid.,
%
clouds,
%
prec.,
mm/h
press.,
hPa
HPBL,
m
11 may, tue
tue1101:00+17nnw227732 0.0 1018118
04:00+16nne22626 0.0 1018162
07:00+17ne227216 0.0 1018105
10:00+21s22590 0.0 1019652
13:00+22s32649 0.0 1018864
16:00+20sse227822 0.1 1017456
19:00+19s119082 0.1 1020277
22:00+19se118993 0.3 1021120
12 may, wed
wed1201:00+19ene118534 0.0 102092
04:00+18nne11823 0.0 101962
07:00+18ne22770 0.0 102093
10:00+22ssw11600 0.0 1020659
13:00+23s326844 0.0 1019839
16:00+21sse227554 0.4 1019493
19:00+20ese228026 0.1 1020200
22:00+19ne12800 0.1 1021103
13 may, thu
thu1301:00+19nne22793 0.0 102078
04:00+19nne228210 0.1 1019108
07:00+19n128325 0.0 1021137
10:00+22sw117322 0.1 1022658
13:00+22ssw217451 0.5 1020672
16:00+21sse227841 1.1 1019421
19:00+20ese128233 0.1 1021185
22:00+19ne11816 0.2 1022124
14 may, fri
fri1401:00+18ene22802 0.0 102093
04:00+18ene228224 0.0 1020134
07:00+19e338310 0.0 1021143
10:00+22se226916 0.1 1021742
13:00+24se446427 0.1 1019939
16:00+23se44694 0.4 1018592
19:00+20e338235 0.3 1020254
22:00+19e33814 0.3 1021162
15 may, sat
sat1501:00+18ne228011 0.0 1021121
04:00+18ene33783 0.0 1020117
07:00+18ene238210 0.0 1021109
10:00+22ese336820 0.1 1021736
13:00+23se226552 0.3 10191070
16:00+22e336524 0.5 1018537
19:00+19e33784 0.1 1020167
22:00+18ene34797 0.1 1021165